Flag for Germany Weather past 2 weeks in Fürstenfeldbruck, Bavaria, Germany

32 °F

Passing clouds.

Feels Like: 32 °F
Forecast: 26 / 38 °F
Wind: No wind

Location: Oberpfaffenhofen

Current Time: Nov 27, 2015 at 10:41:34 PM

Latest Report: Nov 27, 2015 at 6:50 PM

Visibility: 6 mi

Pressure: 29.98 "Hg (28.09 "Hg at 520m altitude)

Humidity: 93%

Dew point: 30 °F

Location of FürstenfeldbruckLocation

Historic Weather in Fürstenfeldbruck — Graph


Fürstenfeldbruck temperature yesterday

Maximum temperature yesterday: 36 °F (at 10:20 AM)
Minimum temperature yesterday: 32 °F (at 6:50 AM)
Average temperature yesterday: 34 °F

Past Weeks' High & Low Weather Summary

High66 °F (Nov 16, 1:20 PM)100% (Nov 12, 8:50 PM)30.42 "Hg (Nov 12, 8:50 PM)
Low19 °F (Nov 24, 6:50 AM)43% (Nov 16, 1:20 PM)29.42 "Hg (Nov 21, 3:50 PM)
Average43 °F79%30.01 "Hg
* Reported Nov 12 6:20 PM — Nov 27 6:50 PM, Fürstenfeldbruck, Weather by CustomWeather, © 2015

Note: Actual official high and low records may vary slightly from our data, if they occured in-between our weather recording intervals... More about our weather records


Fürstenfeldbruck weather history for previous 24 hours

Time TempWeatherWind HumidityBarometerVisibility
6:50 PM
Fri, Nov 27
32 °FPassing clouds.No wind93%29.98 "Hg6 mi
6:20 PM32 °FPassing clouds.No wind93%29.98 "Hg5 mi
5:50 PM32 °FPassing clouds.No wind93%29.98 "HgN/A
5:20 PM32 °FPartly cloudy.2 mph93%29.98 "HgN/A
4:50 PM34 °FPassing clouds.5 mph81%29.98 "HgN/A
4:20 PM34 °FPartly sunny.6 mph87%29.98 "HgN/A
3:50 PM34 °FPartly sunny.6 mph87%29.98 "HgN/A
3:20 PM34 °FPartly sunny.5 mph93%29.98 "HgN/A
2:50 PM34 °FPartly sunny.5 mph93%29.98 "HgN/A
2:20 PM34 °FBroken clouds.6 mph93%30.01 "HgN/A
1:50 PM34 °FBroken clouds.6 mph93%30.01 "Hg4 mi
1:20 PM34 °FBroken clouds.5 mph93%30.01 "Hg4 mi
12:50 PM34 °FPartly sunny.3 mph93%30.04 "Hg5 mi
12:20 PM34 °FPartly sunny.3 mph93%30.04 "Hg5 mi
11:50 AM32 °FChilly.5 mph100%30.04 "Hg4 mi
11:20 AM32 °FPartly sunny.5 mph100%30.07 "Hg4 mi
10:50 AM32 °FPartly sunny.3 mph100%30.07 "Hg4 mi
10:20 AM32 °FIce fog.5 mph93%30.07 "Hg3 mi
9:50 AM30 °FIce fog.2 mph100%30.07 "Hg2 mi
9:20 AM30 °FIce fog.2 mph100%30.07 "Hg1 mi
8:50 AM30 °FIce fog.2 mph100%30.07 "Hg1 mi
8:20 AM30 °FIce fog.No wind100%30.09 "Hg1 mi
7:50 AM30 °FIce fog.No wind100%30.09 "Hg1 mi
7:20 AM30 °FIce fog.1 mph93%30.09 "Hg1 mi
6:50 AM28 °FIce fog.No wind100%30.09 "Hg1 mi
Weather by CustomWeather, © 2015

See weather overviewHow to use our weather pages